www.pogodaiklimat.ru

Погода и климат >> Архив погоды >> Оман >> Сиб


ПОГОДА в Сибе

  • Прогноз погоды в Сибе
  • Монитор погоды в Сибе

АРХИВ ПОГОДЫ в Сибе

Время (UTC), дата Ветер
(напр.,м/с)
 
Видим.   Явления Облачность Т
(С)
Тd
(С)
f
(%)
Тe
(С)
Тes
(С)
Комфортность P
(гПа)
Po
(гПа)
Тmin
(С)
Tmax
(С)
R
(мм)
R24
(мм)
S
(см)
15 12.06 В 2 7000 м мгла ясно +35.3 +27.1 63 +54 +54 опасность
перегрева
997.4 995.8
18 12.06 нст 1 9000 м мгла ясно +34.6 +25.6 60 +50 +50 опасность
перегрева
998.3 996.6 +41.2
21 12.06 нст 1 9000 м мгла ясно +33.1 +11.4 27 +33 +33 жарко 997.1 995.4
00 13.06 В 3 8000 м мгла ясно +32.3 +29.3 84 +56 +56 опасность
перегрева
997.4 995.7
03 13.06 ЮЗ 2 7000 м мгла 4/0
[Ci fib]
+33.0 +27.2 72 +52 +54 опасность
перегрева
998.9 997.2
06 13.06 С 3 8000 м мгла ясно +39.5 +14.3 23 +40 +54 опасность
солнечного
удара
999.7 998.2 +30.9
09 13.06 С 4 9000 м мгла 1/0
[Ci fib]
+40.8 +8.7 15 +39 +54 опасность
солнечного
удара
999.0 997.5
12 13.06 СВ 4 9000 м мгла ясно +37.5 +22.0 41 +46 +51 опасность
перегрева
997.4 995.8
15 13.06 В 3 8000 м мгла ясно +33.8 +26.5 66 +51 +51 опасность
перегрева
997.9 996.2
18 13.06 СВ 1 70 км ?/? +33.1 +25.8 66 +49 +49 опасность
перегрева
998.3 996.6 +41.4
21 13.06 нст 1 70 км ?/? +30.2 +24.0 69 +42 +42 опасность
перегрева
997.6 995.9
00 14.06 нст 2 70 км ?/? +30.8 +23.6 66 +42 +42 опасность
перегрева
997.0 995.3
03 14.06 нст 2 70 км ?/? +33.2 +13.1 30 +34 +34 очень
жарко
998.6 996.9
06 14.06 СВ 3 9000 м мгла ясно +41.7 +5.9 11 +39 +54 опасность
солнечного
удара
999.2 997.5 +29.3
09 14.06 10 км ясно +39.5 +17.4 28 998.4 996.9
12 14.06 СВ 7 10 км ясно +38.7 +19.6 33 +44 +46 опасность
перегрева
996.5 995.0
15 14.06 СВ 2 10 км 6/0
[Ci fib]
+36.9 +25.4 52 +51 +51 опасность
перегрева
996.7 995.1
18 14.06 СВ 1 10 км 4/0
[Ci fib]
+34.1 +22.8 52 +44 +44 опасность
перегрева
997.4 995.7 +42.0
21 14.06 СЗ 4 10 км ясно +34.1 +17.7 38 +38 +38 очень
душно
996.3 994.7
00 15.06 ЮЗ 2 8000 м мгла ясно +31.6 +28.2 82 +52 +52 опасность
перегрева
996.6 994.9
03 15.06 З 2 7000 м мгла ясно +31.9 +28.7 83 +54 +57 опасность
перегрева
998.5 996.8
06 15.06 С 3 8000 м мгла ясно +35.7 +30.0 73 +63 +77 опасность
перегрева
998.8 997.2 +30.8
09 15.06 СВ 4 8000 м мгла ясно +36.4 +28.2 63 +57 +71 опасность
перегрева
998.3 996.7
12 15.06 СВ 5 9000 м мгла ясно +36.7 +26.6 56 +53 +58 опасность
перегрева
997.3 995.6
15 15.06 СВ 2 70 км ?/? +34.3 +27.5 68 +54 +54 опасность
перегрева
997.4 995.7
18 15.06 Ю 2 10 км ясно +34.0 +25.3 61 +48 +48 опасность
перегрева
997.6 995.9 +38.5
21 15.06 СЗ 3 10 км ясно +33.5 +28.4 75 +55 +55 опасность
перегрева
996.4 994.7
00 16.06 штиль 0 8000 м мгла ясно +32.0 +29.8 88 +58 +58 опасность
перегрева
997.5 995.8
03 16.06 СВ 1 10 км 5/0
[Ci fib]
+33.1 +28.6 77 +55 +58 опасность
перегрева
998.7 997.0
06 16.06 СВ 4 10 км 3/0
[Ci fib]
+35.2 +28.8 70 +58 +69 опасность
перегрева
999.9 998.2 +30.9
09 16.06 СВ 8 70 км ?/? +35.1 +30.4 77 +64 +64 опасность
перегрева
999.3 997.6
12 16.06 СВ 6 9000 м мгла 3/0
[Ci fib]
+36.4 +27.6 61 +56 +59 опасность
перегрева
997.6 996.0
15 16.06 нст 1 10 км 3/0
[Ci fib]
+37.7 +23.7 45 +49 +49 опасность
перегрева
997.5 995.9
18 16.06 З 3 70 км ?/? +37.6 +13.4 24 +38 +38 очень
жарко
998.0 996.4 +38.5
21 16.06 В 3 10 км ясно +32.5 +29.3 83 +57 +57 опасность
перегрева
998.3 996.6
00 17.06 СВ 2 10 км ясно +32.0 +28.2 80 +53 +53 опасность
перегрева
998.0 996.3
03 17.06 СВ 2 10 км ясно +33.2 +28.5 76 +55 +58 опасность
перегрева
999.4 997.7
06 17.06 СВ 5 9000 м мгла ясно +36.8 +25.3 52 +51 +61 опасность
перегрева
1000.4 998.8 +30.7
09 17.06 СВ 7 10 км ясно +35.7 +27.5 63 +55 +61 опасность
перегрева
999.0 997.4
12 17.06 В 6 70 км ?/? +34.4 +27.6 68 +54 +54 опасность
перегрева
997.4 995.7
15 17.06 В 4 70 км ?/? +33.2 +27.1 70 +51 +51 опасность
перегрева
997.3 995.6
18 17.06 СЗ 3 10 км ясно +36.0 +23.6 49 +47 +47 опасность
перегрева
998.2 996.6 +38.9
21 17.06 нст 2 10 км ясно +33.5 +24.0 58 +45 +45 опасность
перегрева
996.4 994.7
00 18.06 В 3 70 км ?/? +30.4 +30.4 100 +58 +58 опасность
перегрева
996.6 994.9
03 18.06 С 2 6000 м мгла 8/8 750 м
[Cu med, cong Ac trans]
+31.2 +30.0 93 +57 +58 опасность
перегрева
998.8 997.1
06 18.06 СВ 3 8000 м мгла 3/0
[Ci fib]
+35.4 +26.4 60 +52 +65 опасность
перегрева
998.4 996.7 +30.4
09 18.06 СВ 6 8000 м мгла 1/0
[Ci fib]
+39.3 +21.5 36 +46 +56 опасность
перегрева
996.2 994.5
12 18.06 нст 6 70 км ?/? +35.3 +30.1 75 +63 +63 опасность
перегрева
995.7 994.1
15 18.06 нст 2 70 км ?/? +32.8 +30.8 89 +62 +62 опасность
перегрева
996.9 995.2
18 18.06 С 2 8000 м мгла 3/0
[Ci fib]
+32.1 +30.7 92 +61 +61 опасность
перегрева
996.4 994.7 +40.2
21 18.06 штиль 0 7000 м мгла 3/0
[Ci fib]
+32.6 +30.6 89 +61 +61 опасность
перегрева
994.7 993.0
00 19.06 СВ 4 70 км ?/? +32.7 +30.3 87 +60 +60 опасность
перегрева
994.3 992.6
03 19.06 СВ 3 7000 м мгла 3/3 540 м
[St]
+32.1 +30.9 93 +62 +63 опасность
перегрева
995.9 994.2
06 19.06 В 5 9000 м мгла ясно +38.1 +27.1 54 +56 +65 опасность
перегрева
995.5 994.0 +31.7
09 19.06 СВ 8 10 км ясно +38.8 +24.3 44 +50 +54 опасность
перегрева
994.3 992.8
12 19.06 СВ 9 70 км ?/? +35.1 +30.4 77 +64 +64 опасность
перегрева
992.8 991.2

 

Местоположение метеостанции Сиб (Оман): широта 23.58 долгота 58.28 высота над уровнем моря 15 м.

В архиве по умолчанию представлена погода в Сибе за последнюю неделю. Архивные данные за месяц целиком и за предыдущие месяцы, начиная с января 2011 года, Вы можете получить, выбрав интересующий диапазон дат из раскрывающегося списка и нажав кнопку "Ввод!".


*Определитесь, кто Вы:
робот инопланетянин человек

Внимание! Время в таблицах - всемирное. Для получения местного времени необходимо прибавить поправку, которая равна 4 ч.

Смотрите также архив погоды в соседних городах и на ближайших метеорологических станциях:

Погода в Аль Амарат (Оман) (22 км)
Погода в Порту Sultan Qaboos (Оман) (30 км)
Погода в Самаиле (Оман) (47 км)
Погода в Саике (Оман) (87 км)
Погода в Рустаке (Оман) (90 км)
Погода в Ибре (Оман) (97 км)
Погода в Эс-Сувейке (Оман) (106 км)
Погода на Эш-Шам (Оман) (110 км)
Погода в Назве (Оман) (112 км)
Погода в Аль Мудайби (Оман) (120 км)

Пояснения к столбцам:

Ветер - указаны скорость ветра в м/с - средняя за 10 мин, порывы в срок и между сроками (в фигурных скобках) и направление, откуда дует ветер: С - северный, СВ - северо-восточный, В - восточный, ЮВ - юго-восточный, Ю - южный, ЮЗ - юго-западный, З - западный, СЗ - северо-западный.
Видимость - горизонтальная дальность видимости в метрах или километрах. При видимости от 1 до 10 км при отсутствии осадков обычно наблюдается дымка, при ухудшении видимости до 1 км и менее - туман. В сухую погоду видимость может ухудшаться дымом, пылью или мглою.
Явления - указаны атмосферные явления, наблюдавшиеся в срок или в последний час перед сроком; фигурными скобками обозначены явления, наблюдавшиеся между сроками (за 1-3 часа до срока); квадратными скобками обозначены град или гололедные отложения с указанием их диаметра в мм.
Облачность - указаны через наклонную черту общая и нижняя облачность в баллах и высота нижней границы облаков в метрах; квадратными скобками обозначены формы облаков: Ci - перистые, Cs - перисто-слоистые, Cc - перисто-кучевые, Ac - высококучевые, As - высокослоистые, Sc - слоисто-кучевые, Ns - слоисто-дождевые, Cu - кучевые, Cb - кучево-дождевые. Подробнее классификацию облаков см. в Атласе облаков (PDF).
T - Температура воздуха - температура, измеренная на высоте 2 м над землей.
Td - Температура точки росы - температура, при понижении до которой содержащийся в воздухе водяной пар достигнет насыщения.
f - Относительная влажность воздуха - влажноcть воздуха, измеренная на высоте 2 м над землей.
Te - Эффективная температура - температура, которую ощущает одетый по сезону человек в тени. Характеристика душности погоды. При расчете учитывается влияние влажности воздуха и скорости ветра на теплоощущения человека.
Tes - Эффективная температура на солнце - температура, которую ощущает человек, с поправкой на солнечный нагрев. Характеристика знойности погоды. Зависит от высоты солнца над горизонтом, облачности и скорости ветра. Ночью, в пасмурную погоду, а также при ветре 12 м/с и более поправка равна нулю.
P - Атмосферное давление - приведенное к уровню моря атмосферное давление.
Po - Атмосферное давление - измеренное на уровне метеостанции атмосферное давление.
Tmin - Минимальная температура - минимум температуры воздуха на высоте 2 м над землей.
Tmax - Максимальная температура - максимум температуры воздуха на высоте 2 м над землей.
R - Количество осадков - Количество выпавших осадков за период времени, мм. При наведении курсора мыши на число - период времени, за который выпало указанное количество осадков.
R24 - Количество осадков - Количество выпавших осадков за 24 часа, мм.
S - Снежный покров - Высота снежного покрова, см. При наведении курсора мыши на число - состояние снежного покрова и степень покрытия местности в баллах.